Regional Weather Roundup
Issued by NWS Sterling, VA

Home | Current Version | Previous Version | Text Only | Print | Product List | Glossary Off
Versions: 1 2 3 4 5 6 7 8 9 10 11 12 13 14 15 16 17 18 19 20 21 22 23 24 25 26 27 28 29 30 31 32 33 34 35 36 37 38 39 40 41 42 43 44 45 46 47 48 49 50

000
ASUS41 KLWX 200710
RWRLWX

REGIONAL WEATHER ROUNDUP
NATIONAL WEATHER SERVICE BALTIMORE MD/WASHINGTON DC
300 AM EDT WED AUG 20 2014

Note: "FAIR" indicates few or no clouds below 12,000 feet
with no significant weather and/or obstructions to visibility.
 TC=TEMPERATURE CELSIUS

 * =Non NWS site. Station does not report precipitation (e.g. rain,
    snow, etc.), thunder, or fog.

DCZ001-MDZ009-015-VAZ040>042-051-053>054-200800-
WASHINGTON METRO
  /KDAA//-FT BELVOIR

CITY           SKY/WX    TMP DP  RH WIND       PRES   REMARKS
WASHINGTON NAT PTCLDY    74  64  71 S3        29.93S
DULLES         MOCLDY    71  68  90 S5        29.92F
ANDREWS AFB    CLEAR     67  66  99 CALM      29.92F
QUANTICO       PTCLDY    75  69  81 S5        29.92F
COLLEGE PARK*  CLEAR     68  68 100 CALM      29.92F
LEESBURG*      CLOUDY    72  70  94 CALM      29.93F
MANASSAS*      CLOUDY    72  72 100 CALM      29.92S
GAITHERSBURG*  MOCLDY    70  64  83 CALM      29.97S

$$

MDZ006>007-011-014-200800-
BALTIMORE METRO

CITY           SKY/WX    TMP DP  RH WIND       PRES   REMARKS
BWI AIRPORT    PTCLDY    66  63  90 CALM      29.92F
MD SCIENCE CTR   N/A     74  62  66 MISG      29.93F
MARTIN STATE   CLEAR     70  64  83 CALM      29.94S
ANNAPOLIS      CLEAR     72  64  76 CALM      29.92S
FORT MEADE*    CLEAR     63  61  94 CALM      29.95S

$$

MDZ012-015-019>023-200800-
MARYLAND EASTERN SHORE

CITY           SKY/WX    TMP DP  RH WIND       PRES   REMARKS
OCEAN CITY     CLEAR     73  65  75 E8        29.90F
SALISBURY      CLEAR     67  62  84 CALM      29.91S
BAY BRIDGE AP*   N/A     68  64  88 CALM      29.93S
CAMBRIDGE*     CLEAR     63  61  94 CALM      29.91S
EASTON*        CLEAR     66  66 100 CALM      29.96S

$$

MDZ017>025-200800-
SOUTHERN MARYLAND

CITY           SKY/WX    TMP DP  RH WIND       PRES   REMARKS
PATUXENT RIVER CLEAR     68  64  87 E5        29.91S
ST INIGOES     CLEAR     65  61  87 CALM      29.90S
LEONARDTOWN*   CLEAR     64  61  88 CALM      29.94R

$$

MDZ003>005-200800-
NORTH CENTRAL MARYLAND

CITY           SKY/WX    TMP DP  RH WIND       PRES   REMARKS
FREDERICK*     MOCLDY    70  70 100 CALM      29.94F
HAGERSTOWN APT CLOUDY    73  65  75 S7        29.92F
WESTMINSTER*   CLOUDY    72  66  83 S3        29.95S

$$

MDZ501>502-200800-
WESTERN MARYLAND

CITY           SKY/WX    TMP DP  RH WIND       PRES   REMARKS
OAKLAND*       CLEAR     63 N/A N/A S5        30.00F HAZE
CUMBERLAND*    CLOUDY    70  68  94 CALM      29.95F

$$

VAZ025>031-200800-
SHENANDOAH VALLEY

CITY           SKY/WX    TMP DP  RH WIND       PRES   REMARKS
WINCHESTER*    CLEAR     68  66  94 CALM      29.92S
STAUNTON*      CLOUDY    68  66  93 CALM      29.96F FOG

$$

WVZ021-048>050-054>055-200800-
EASTERN WEST VIRGINIA PANHANDLE

CITY           SKY/WX    TMP DP  RH WIND       PRES   REMARKS
MARTINSBURG    MOCLDY    72  65  78 SE6       29.92F
PETERSBURG*    NOT AVBL

$$

VAZ036>039-050-200800-
CENTRAL FOOTHILLS

CITY           SKY/WX    TMP DP  RH WIND       PRES   REMARKS
CHARLOTTESVILL CLOUDY    72  70  93 CALM      29.92F
ORANGE*        CLOUDY    70  68  94 CALM      29.94S

$$

VAZ055>057-200800-
NORTH AND CENTRAL PIEDMONT

CITY           SKY/WX    TMP DP  RH WIND       PRES   REMARKS
FREDERICKSBRG* PTCLDY    70  70 100 CALM      29.91S
STAFFORD*        N/A     69  69 100 CALM      29.96F FOG

$$

NCZ024-NYZ072-PAZ021-071-VAZ022-071-200800-
OTHER REGIONAL OBSERVATIONS

CITY           SKY/WX    TMP DP  RH WIND       PRES   REMARKS
NEW YORK CITY  PTCLDY    70  63  78 CALM      29.98R
PHILADELPHIA   CLOUDY    73  64  73 S3        29.93F
PITTSBURGH     TSTM      66  65  96 E3        29.91F
ROANOKE        CLEAR     65  64  97 NW3       29.98S
RICHMOND       CLEAR     72  69  90 N3        29.90S
RALEIGH        PTCLDY    73  69  87 E3        29.90R

$$

ANZ530>537-200800-
MARINE OBSERVATIONS

STATION/POSITION TIME  TEMP    WIND        PRES
                       AIR SEA DIR/SP/G
                 (UTC) (F)     (DEG/KT/KT) (MB)
THOMAS PT LIGHT  0700   74 77  130/  6/  7 1013.8F
BALT KEY BRIDGE  0700   75     150/  8/  9 1012.9F
COVE POINT       0700   73     120/  5/  6 1012.7S
LEWISETTA        0700   75 79  110/  8/ 10 1011.9F
SOLOMONS ISLAND  0700      79                N/A
PINEY POINT      0700           20/  5/  5   N/A

$$



USA.gov is the U.S. government's official web portal to all federal, state and local government web resources and services.